Location: Waning Moon II Observatory
(30.3730°N, 89.7620°W)
Time: 19:16:59
(UTC-05:00)

Meteor 1-21 - Visible Passes

Search period start: 24 June 2017 00:00
Search period end: 04 July 2017 00:00
Orbit: 843 x 889 km, 81.2° (Epoch: 24 June)

Date Brightness Start Highest point End Pass type
(mag) Time Alt. Az. Time Alt. Az. Time Alt. Az.
24 Jun 7.5 05:14:24 10° NE 05:16:38 12° ENE 05:18:50 10° E visible
25 Jun 7.5 05:07:01 10° NE 05:09:18 12° ENE 05:11:34 10° E visible
26 Jun 7.4 04:59:38 10° NE 05:01:59 12° ENE 05:04:18 10° E visible
27 Jun 7.4 04:52:16 10° NE 04:54:39 13° ENE 04:57:02 10° E visible
28 Jun 7.3 04:44:53 10° NE 04:47:20 13° ENE 04:49:45 10° E visible
29 Jun 7.3 04:37:31 10° NE 04:40:00 13° ENE 04:42:28 10° E visible
30 Jun 7.2 04:30:09 10° NE 04:32:41 13° ENE 04:35:12 10° E visible
01 Jul 7.2 04:22:46 10° NE 04:25:21 13° ENE 04:27:55 10° E visible
02 Jul 7.1 04:15:24 10° NE 04:18:02 13° ENE 04:20:38 10° E visible
03 Jul 7.1 04:08:02 10° NE 04:10:42 13° ENE 04:13:21 10° E visible
